Weather History for Alderney, United Kingdom

Change the Weather History Date:

Friday, November 30, 2012

  Actual Average Record
Temperature  
Mean Temperature 42 °F -  
Max Temperature 44 °F 47 °F 55 °F (2007)
Min Temperature 39 °F 43 °F 33 °F (2010)
Degree Days  
Heating Degree Days 24    
Moisture  
Dew Point 33 °F    
Average Humidity 68    
Maximum Humidity 75    
Minimum Humidity 61    
Precipitation  
Precipitation 0.00 in - - ()
Sea Level Pressure  
Sea Level Pressure 29.88 in    
Wind  
Wind Speed 3 mph ()    
Max Wind Speed 8 mph    
Max Gust Speed -    
Visibility 6.2 miles    
Events      
Averages and records for this station are not official NWS values.
T = Trace of Precipitation, MM = Missing Value Source: Averaged Metar Reports

Daily Weather History Graph

Daily Weather History Graph

Search for Another Location

Airport:

Trip Planner

Search our weather history database for the weather conditions in past years. The results will help you decide how hot, cold, wet, or windy it might be!

Date:

Astronomy

Nov. 30, 2012 Rise Set
Actual Time 7:43 AM GMT 4:11 PM GMT
Civil Twilight 7:06 AM GMT 4:48 PM GMT
Nautical Twilight 6:25 AM GMT 5:29 PM GMT
Astronomical Twilight 5:47 AM GMT 6:07 PM GMT
Moon 5:54 PM GMT (11/30) 9:04 AM GMT (11/30)
Length of Visible Light 9h 42m
Length of Day
8h 28m
Full, 97% of the Moon is Illuminated
Nov 30
Full
Dec 6
Last Quarter
Dec 13
New
Dec 20
First Quarter
Dec 28
Full

Hourly Weather History & Observations

Time (GMT) Temp. Windchill Dew Point Humidity Pressure Visibility Wind Dir Wind Speed Gust Speed Precip Events Conditions
6:50 AM 39.2 °F 37.0 °F 32.0 °F 75% 29.83 in 6.2 mi Variable 3.5 mph - N/A   Partly Cloudy
7:20 AM 39.2 °F 37.0 °F 32.0 °F 75% 29.83 in 6.2 mi North 3.5 mph - N/A   Partly Cloudy
7:50 AM 39.2 °F 37.0 °F 32.0 °F 75% 29.86 in 6.2 mi North 3.5 mph - N/A   Scattered Clouds
8:20 AM 41.0 °F 37.1 °F 32.0 °F 70% 29.86 in 6.2 mi North 5.8 mph - N/A   Scattered Clouds
8:50 AM 41.0 °F 38.0 °F 32.0 °F 70% 29.86 in 6.2 mi North 4.6 mph - N/A   Partly Cloudy
9:20 AM 42.8 °F 39.3 °F 33.8 °F 70% 29.86 in 6.2 mi North 5.8 mph - N/A   Partly Cloudy
9:50 AM 42.8 °F 40.1 °F 33.8 °F 70% 29.89 in 6.2 mi NNE 4.6 mph - N/A   Partly Cloudy
10:20 AM 42.8 °F 41.1 °F 33.8 °F 70% 29.89 in 6.2 mi Variable 3.5 mph - N/A   Partly Cloudy
10:50 AM 44.6 °F - 33.8 °F 66% 29.89 in 6.2 mi Variable 2.3 mph - N/A   Partly Cloudy
11:20 AM 44.6 °F 41.4 °F 33.8 °F 66% 29.89 in 6.2 mi North 5.8 mph - N/A   Partly Cloudy
11:50 AM 44.6 °F 40.2 °F 33.8 °F 66% 29.89 in 6.2 mi North 8.1 mph - N/A   Partly Cloudy
12:20 PM 44.6 °F 42.2 °F 33.8 °F 66% 29.89 in 6.2 mi North 4.6 mph - N/A   Partly Cloudy
12:50 PM 44.6 °F 40.7 °F 32.0 °F 61% 29.89 in 6.2 mi North 6.9 mph - N/A   Partly Cloudy
1:20 PM 44.6 °F 41.4 °F 32.0 °F 61% 29.89 in 6.2 mi NNW 5.8 mph - N/A   Partly Cloudy
1:50 PM 44.6 °F 43.1 °F 32.0 °F 61% 29.89 in 6.2 mi Variable 3.5 mph - N/A   Partly Cloudy
2:20 PM 42.8 °F 41.1 °F 32.0 °F 66% 29.89 in 6.2 mi Variable 3.5 mph - N/A   Partly Cloudy
2:50 PM 42.8 °F 41.1 °F 32.0 °F 66% 29.89 in 6.2 mi Variable 3.5 mph - N/A   Partly Cloudy
3:20 PM 41.0 °F - 32.0 °F 70% 29.89 in 6.2 mi Calm Calm - N/A   Partly Cloudy
4:20 PM 41.0 °F - 32.0 °F 70% 29.89 in 6.2 mi Calm Calm - N/A   Partly Cloudy
4:50 PM 41.0 °F - 32.0 °F 70% 29.92 in 6.2 mi Variable 2.3 mph - N/A   Partly Cloudy
5:20 PM 41.0 °F - 32.0 °F 70% 29.92 in 6.2 mi Calm Calm - N/A   Partly Cloudy
5:50 PM 41.0 °F - 32.0 °F 70% 29.92 in 6.2 mi Calm Calm - N/A   Partly Cloudy
6:20 PM 42.8 °F - 33.8 °F 70% 29.92 in 6.2 mi Calm Calm - N/A   Partly Cloudy